User: anonymous   Login
Location: Choisy
(48.7685°N, 2.4187°E)
Time: 00:36:55
(UTC+00:00)
Language:

Cosmos 2278 - Orbit

View from above orbital plane
View from above orbital plane
View from above satellite
View from above satellite

Ground track
Ground track

The orbit data is extracted from the following two-line orbital elements,

1 23087U 94023A   22018.55087902 -.00000161  00000-0 -59877-4 0  9997
2 23087  71.0531  95.1204 0009248 191.5601 168.5311 14.13839725431181
Epoch (UTC): 18 January 2022 13:13:15
Eccentricity: 0.0009248
inclination: 71.0531°
perigee height: 839 km
apogee height: 853 km
right ascension of ascending node: 95.1204°
argument of perigee: 191.5601°
revolutions per day: 14.13839725
mean anomaly at epoch: 168.5311°
orbit number at epoch: 43118

The dashed part of the orbit path shows where the satellite is in the earth's shadow,  

DLR